Regional Weather Roundup
Issued by NWS

Home | Current Version | Previous Version | Text Only | Print | Product List | Glossary Off
Versions: 1 2 3 4 5 6 7 8 9 10 11 12 13 14 15 16 17 18 19 20 21 22 23 24 25 26 27 28 29 30 31 32 33 34 35 36 37 38 39 40 41 42 43 44 45 46 47 48 49 50

000
ASUS43 KLOT 221608
RWRIL

ILLINOIS REGIONAL WEATHER ROUNDUP
NATIONAL WEATHER SERVICE CHICAGO/ROMEOVILLE IL
1100 AM CDT SUN APR 22 2018

NOTE: "FAIR" INDICATES FEW OR NO CLOUDS BELOW 12,000 FEET WITH NO
SIGNIFICANT WEATHER AND/OR OBSTRUCTIONS TO VISIBILITY.

* THESE STATIONS ARE NOT UNDER NWS QUALITY CONTROL. THEY ALSO MAY NOT
  REPORT WEATHER SUCH AS PRECIPITATION OR FOG.

ILZ001-002-007-009-015-016-024-221700-
NORTHWEST ILLINOIS

CITY           SKY/WX    TMP DP  RH WIND       PRES   REMARKS
MOLINE         FAIR      59  26  28 E17       30.27F
STERLING*      FAIR      60  26  27 E18       30.31F
SAVANNA*       FAIR      59  26  27 E12       30.33F
$$

ILZ003-004-008-010-011-017-018-221700-
NORTH CENTRAL ILLINOIS

CITY           SKY/WX    TMP DP  RH WIND       PRES   REMARKS
ROCKFORD       PTSUNNY   56  27  32 E13       30.37F
FREEPORT*      FAIR      56  29  36 E13       30.36F
ROCHELLE*      FAIR      59  27  29 E21G26    30.34F
DE KALB*       FAIR      58  27  30 E16       30.35S
PERU*          FAIR      61  19  20 E13       30.31F
$$

ILZ005-006-012>014-019>023-221700-
NORTHEAST ILLINOIS

CITY           SKY/WX    TMP DP  RH WIND       PRES   REMARKS
CHICAGO-OHARE  PTSUNNY   56  23  27 E14       30.35F
CHICAGO-MIDWAY PTSUNNY   56  25  30 E13       30.35F
AURORA         FAIR      58  25  28 E14       30.34F
LANSING*       FAIR      58  31  36 E14       30.34F
JOLIET*        FAIR      60  28  30 E15       30.33F
WAUKEGAN       FAIR      51  24  34 E8        30.38S
DUPAGE AIRPORT FAIR      57  28  33 E15G22    30.34F
KANKAKEE*      FAIR      59  19  20 E14       30.31F
WHEELING       FAIR      55  22  27 E7        30.38F
MORRIS*        FAIR      60  24  25 E20       30.31F
ROMEOVILLE*    FAIR      59  28  30 E13       30.33F
NORTHERLY ISL    N/A     47  29  50 N9          N/A
$$

LMZ740>746-221700-
SOUTHERN LAKE MICHIGAN

STATION/POSITION SKY/WX   TEMP    WIND        PRES    VSBY  WAVE
                          AIR SEA DIR/SP/G                  HT/PER
                          (F)     (DEG/KT/KT) (MB)    (MI)  (FT/S)
HARRISON CRIB              43     290/  3/  5   N/A
BURNHAM HARBOR             48      20/  5/  8   N/A
CALUMET HARBOR             47      20/  9/ 12 1027.4F
BURNS HARBOR               45      40/ 11/ 15 1028.1F
MICHIGAN CITY              54      70/ 16/ 20   N/A
$$

ILZ025>027-034>036-040-047-049-050-058-095>099-221700-
WEST-CENTRAL ILLINOIS

CITY           SKY/WX    TMP DP  RH WIND       PRES   REMARKS
QUINCY         CLOUDY    61  37  41 NE10G17   30.18F
GALESBURG*     FAIR      62  31  31 E14       30.26F
MACOMB*        CLOUDY    58  32  37 E14       30.25F
JACKSONVILLE*  SUNNY     61  37  41 NE14      30.18F
PITTSFIELD*    SUNNY     62  40  45 E9        30.17F
$$

ILZ028>032-037-038-041>044-048-051>054-059>061-221700-
CENTRAL ILLINOIS

CITY           SKY/WX    TMP DP  RH WIND       PRES   REMARKS
PONTIAC        FAIR      62  19  18 E16G25    30.28F
BLOOMINGTON    FAIR      57  29  34 E20       30.26F
DECATUR        CLOUDY    53  31  42 E16       30.23R
PEORIA         FAIR      57  29  34 E17G29    30.26F
LACON*         FAIR      58  25  28 E16       30.27F
LINCOLN*       CLOUDY    61  35  37 NE14      30.22F
SPRINGFIELD    PTSUNNY   60  34  37 NE13      30.20F
TAYLORVILLE    CLOUDY    55  32  41 E14       30.19S
$$

ILZ033-039-045-046-055>057-062-063-221700-
EAST-CENTRAL ILLINOIS

CITY           SKY/WX    TMP DP  RH WIND       PRES   REMARKS
CHAMPAIGN      CLOUDY    54  29  38 NE13      30.23F
DANVILLE*      CLOUDY    56  30  36 NE14      30.23F
RANTOUL*       CLOUDY    60  31  33 E17       30.24F
MATTOON        FAIR      56  33  42 E10       30.19F
PARIS*         PTSUNNY   53  33  47 NE10      30.25R
$$

ILZ079-100>102-221700-
SOUTHWEST ILLINOIS

CITY           SKY/WX    TMP DP  RH WIND       PRES   REMARKS
ALTON          CLOUDY    59  45  58 E13G20    30.15F
BELLEVILLE     CLOUDY    55  42  62 E10       30.13F
CAHOKIA*       CLOUDY    56  45  66 E9        30.12F
SPARTA*        CLOUDY    53  47  78 E15       30.13F
$$

ILZ064>066-069>071-074>076-080>082-084>086-088>090-092>094-221700-
SOUTH-CENTRAL ILLINOIS

CITY           SKY/WX    TMP DP  RH WIND       PRES   REMARKS
CARBONDALE     CLOUDY    56  43  61 E12       30.12F
CAIRO*         LGT RAIN  51  48  87 NE8       30.09F
EFFINGHAM*     FAIR      61  35  37 NE9       30.19F
MARION         CLOUDY    55  41  58 NE10      30.13F
MT. VERNON       N/A     55  38  52 E9        30.15F
CENTRALIA*     CLOUDY    56  39  53 E8        30.14F
SALEM*         CLOUDY    58  35  42 E6        30.15F
METROPOLIS*    LGT RAIN  54  47  76 NE6       30.11F
$$

ILZ067-068-072-073-078-083-087-091-221700-
SOUTHEAST ILLINOIS

CITY           SKY/WX    TMP DP  RH WIND       PRES   REMARKS
LAWRENCEVILLE  FAIR      62  32  32 E12       30.19F
FLORA*         CLOUDY    60  35  39 E9        30.18F
FAIRFIELD*     CLOUDY    58  35  41 E8        30.15F
HARRISBURG*    PTSUNNY   58  43  57 E9        30.14F
ROBINSON*      FAIR      60  35  39 E12       30.20F
CARMI*         FAIR      61  39  44 E10       30.15S
$$

ABBREVIATIONS USED IN REMARKS
   TC - TEMPERATURE IN CELSIUS
  WCI - WIND CHILL INDEX
   HX - HEAT INDEX
  VSB - VISIBILITY
$$





USA.gov is the U.S. government's official web portal to all federal, state and local government web resources and services.